Starlink 4420

operational
NORAD ID: 53654 Int'l Des: 2022-105 Owner: SPXS Country: US Constellation: starlink
LEOCIRCULARRETROGRADESSO

Starlink 4420について

説明を読み込み中...

リアルタイム位置

3D地球を読み込み中...

次回通過

高度履歴

Altitude vs Time

uPlot chart will show altitude changes over time

軌道要素

1 53654U 22105G 25260.13589441 -.00000128 00000-0 -53947-5 0 9999
2 53654 97.6028 140.3069 0003482 48.4479 311.7044 15.01257133167195
Epoch: Sep 17, 2025 • Age: 13 hours

現在のステータス

高度 564.3 km
速度 7.58 km/s
衛星直下点 0.51°N, 97°W
打ち上げ日 Aug 31, 2022
運用期間 3 years
タイプ internet

技術仕様

分類 Payload
質量 300.00 kg
乾燥質量 290.00 kg
総質量 300.00 kg
長さ 0.20 m
直径 2.80 m
スパン 9.00 m
形状 Box + pan
製造者 SPXS
バスタイプ Starlink
フェーズステータス In Orbit
所有者/国 SPXS/US

大規模コンステレーション

Loading constellations...